Time,TemperatureF,DewpointF,PressureIn,WindDirection,WindDirectionDegrees,WindSpeedMPH,WindSpeedGustMPH,Humidity,HourlyPrecipIn,Conditions,Clouds,dailyrainin,SoftwareType,DateUTC
2013-05-27 00:11:00,47.8,42.0,30.18,NNW,346,0.0,1.0,81,0.00,,,0.00,weatherlink.com 1.10,2013-05-27 04:11:00,
2013-05-27 00:26:00,47.4,43.0,30.19,NNW,346,2.0,2.0,83,0.00,,,0.00,weatherlink.com 1.10,2013-05-27 04:26:00,
2013-05-27 00:41:00,47.1,42.0,30.19,NNW,346,0.0,0.0,83,0.00,,,0.00,weatherlink.com 1.10,2013-05-27 04:41:00,
2013-05-27 00:56:00,46.8,43.0,30.20,NNW,346,0.0,0.0,85,0.00,,,0.00,weatherlink.com 1.10,2013-05-27 04:56:00,
2013-05-27 01:11:00,46.2,42.0,30.20,NNW,346,0.0,0.0,86,0.00,,,0.00,weatherlink.com 1.10,2013-05-27 05:11:00,
2013-05-27 01:26:00,45.6,42.0,30.20,NNW,346,0.0,0.0,86,0.00,,,0.00,weatherlink.com 1.10,2013-05-27 05:26:00,
2013-05-27 01:41:00,45.1,42.0,30.20,NNW,346,0.0,0.0,88,0.00,,,0.00,weatherlink.com 1.10,2013-05-27 05:41:00,
2013-05-27 01:56:00,44.6,41.0,30.20,NNW,346,0.0,0.0,88,0.00,,,0.00,weatherlink.com 1.10,2013-05-27 05:56:00,
2013-05-27 02:11:00,44.2,41.0,30.20,NNW,346,0.0,0.0,89,0.00,,,0.00,weatherlink.com 1.10,2013-05-27 06:11:00,
2013-05-27 02:26:00,43.8,41.0,30.20,NNW,346,0.0,0.0,90,0.00,,,0.00,weatherlink.com 1.10,2013-05-27 06:26:00,
2013-05-27 02:41:00,43.3,41.0,30.20,NNW,346,0.0,0.0,90,0.00,,,0.00,weatherlink.com 1.10,2013-05-27 06:41:00,
2013-05-27 02:56:00,42.7,40.0,30.20,NNW,346,0.0,0.0,91,0.00,,,0.00,weatherlink.com 1.10,2013-05-27 06:56:00,
2013-05-27 03:11:00,42.3,40.0,30.20,NNW,346,0.0,0.0,92,0.00,,,0.00,weatherlink.com 1.10,2013-05-27 07:11:00,
2013-05-27 03:26:00,42.1,40.0,30.20,NNW,346,0.0,0.0,92,0.00,,,0.00,weatherlink.com 1.10,2013-05-27 07:26:00,
2013-05-27 03:41:00,41.7,40.0,30.20,NNW,346,0.0,0.0,93,0.00,,,0.00,weatherlink.com 1.10,2013-05-27 07:41:00,
2013-05-27 03:56:00,41.4,40.0,30.20,NNW,346,0.0,0.0,93,0.00,,,0.00,weatherlink.com 1.10,2013-05-27 07:56:00,
2013-05-27 04:11:00,40.9,39.0,30.21,NNW,346,0.0,0.0,93,0.00,,,0.00,weatherlink.com 1.10,2013-05-27 08:11:00,
2013-05-27 04:26:00,40.5,39.0,30.21,NNW,346,0.0,0.0,94,0.00,,,0.00,weatherlink.com 1.10,2013-05-27 08:26:00,
2013-05-27 04:41:00,40.4,39.0,30.21,NNW,346,0.0,0.0,94,0.00,,,0.00,weatherlink.com 1.10,2013-05-27 08:41:00,
2013-05-27 04:56:00,40.2,39.0,30.21,NNE,18,0.0,0.0,95,0.00,,,0.00,weatherlink.com 1.10,2013-05-27 08:56:00,
2013-05-27 05:11:00,40.1,39.0,30.22,NNE,18,0.0,0.0,95,0.00,,,0.00,weatherlink.com 1.10,2013-05-27 09:11:00,
2013-05-27 05:26:00,40.0,39.0,30.22,NNE,18,0.0,0.0,95,0.00,,,0.00,weatherlink.com 1.10,2013-05-27 09:26:00,
2013-05-27 05:41:00,39.7,38.0,30.21,NNE,18,0.0,0.0,95,0.00,,,0.00,weatherlink.com 1.10,2013-05-27 09:41:00,
2013-05-27 05:56:00,39.5,38.0,30.21,NNE,18,0.0,0.0,95,0.00,,,0.00,weatherlink.com 1.10,2013-05-27 09:56:00,
2013-05-27 06:11:00,39.5,39.0,30.21,NNE,18,0.0,0.0,96,0.00,,,0.00,weatherlink.com 1.10,2013-05-27 10:11:00,
2013-05-27 06:26:00,39.8,39.0,30.22,NNE,18,0.0,0.0,96,0.00,,,0.00,weatherlink.com 1.10,2013-05-27 10:26:00,
2013-05-27 06:42:00,40.4,39.0,30.23,NNE,18,0.0,0.0,96,0.00,,,0.00,weatherlink.com 1.10,2013-05-27 10:42:00,
2013-05-27 06:57:00,41.5,41.0,30.23,NNE,18,0.0,0.0,97,0.00,,,0.00,weatherlink.com 1.10,2013-05-27 10:57:00,
2013-05-27 07:12:00,43.2,42.0,30.23,NNE,18,0.0,0.0,97,0.00,,,0.00,weatherlink.com 1.10,2013-05-27 11:12:00,
2013-05-27 07:27:00,46.0,44.0,30.23,NNE,18,0.0,0.0,92,0.00,,,0.00,weatherlink.com 1.10,2013-05-27 11:27:00,
2013-05-27 07:42:00,47.6,45.0,30.24,NNE,18,0.0,0.0,90,0.00,,,0.00,weatherlink.com 1.10,2013-05-27 11:42:00,
2013-05-27 07:57:00,50.1,46.0,30.24,West,277,0.0,3.0,84,0.00,,,0.00,weatherlink.com 1.10,2013-05-27 11:57:00,
2013-05-27 08:12:00,53.8,46.0,30.24,West,268,3.0,3.0,76,0.00,,,0.00,weatherlink.com 1.10,2013-05-27 12:12:00,
2013-05-27 08:27:00,56.4,45.0,30.25,NW,304,2.0,3.0,65,0.00,,,0.00,weatherlink.com 1.10,2013-05-27 12:27:00,
2013-05-27 08:42:00,58.5,45.0,30.24,NW,313,0.0,3.0,61,0.00,,,0.00,weatherlink.com 1.10,2013-05-27 12:42:00,
2013-05-27 08:57:00,60.0,46.0,30.24,NW,313,0.0,2.0,60,0.00,,,0.00,weatherlink.com 1.10,2013-05-27 12:57:00,
2013-05-27 09:12:00,60.4,44.0,30.23,NW,326,1.0,2.0,56,0.00,,,0.00,weatherlink.com 1.10,2013-05-27 13:12:00,
2013-05-27 09:27:00,60.7,43.0,30.23,NNW,339,1.0,2.0,53,0.00,,,0.00,weatherlink.com 1.10,2013-05-27 13:27:00,
2013-05-27 09:42:00,60.9,43.0,30.24,NNW,339,1.0,3.0,52,0.00,,,0.00,weatherlink.com 1.10,2013-05-27 13:42:00,
2013-05-27 09:57:00,61.8,44.0,30.24,NNE,18,0.0,3.0,53,0.00,,,0.00,weatherlink.com 1.10,2013-05-27 13:57:00,
2013-05-27 10:12:00,62.1,43.0,30.24,SW,222,0.0,4.0,50,0.00,,,0.00,weatherlink.com 1.10,2013-05-27 14:12:00,
2013-05-27 10:27:00,63.1,42.0,30.24,West,280,1.0,4.0,47,0.00,,,0.00,weatherlink.com 1.10,2013-05-27 14:27:00,
2013-05-27 10:42:00,63.1,43.0,30.23,East,89,0.0,3.0,48,0.00,,,0.00,weatherlink.com 1.10,2013-05-27 14:42:00,
2013-05-27 10:57:00,63.0,43.0,30.23,SE,138,1.0,3.0,49,0.00,,,0.00,weatherlink.com 1.10,2013-05-27 14:57:00,
2013-05-27 11:12:00,63.6,43.0,30.23,ESE,113,2.0,5.0,47,0.00,,,0.00,weatherlink.com 1.10,2013-05-27 15:12:00,
2013-05-27 11:27:00,63.6,43.0,30.23,ESE,112,3.0,3.0,47,0.00,,,0.00,weatherlink.com 1.10,2013-05-27 15:27:00,
2013-05-27 11:42:00,64.0,44.0,30.23,West,277,1.0,5.0,48,0.00,,,0.00,weatherlink.com 1.10,2013-05-27 15:42:00,
2013-05-27 11:57:00,64.5,45.0,30.22,ENE,75,1.0,3.0,49,0.00,,,0.00,weatherlink.com 1.10,2013-05-27 15:57:00,
2013-05-27 12:12:00,64.8,44.0,30.22,WNW,302,1.0,4.0,47,0.00,,,0.00,weatherlink.com 1.10,2013-05-27 16:12:00,
2013-05-27 12:27:00,65.4,44.0,30.22,SW,225,1.0,3.0,47,0.00,,,0.00,weatherlink.com 1.10,2013-05-27 16:27:00,
2013-05-27 12:42:00,65.5,45.0,30.21,ESE,112,0.0,5.0,48,0.00,,,0.00,weatherlink.com 1.10,2013-05-27 16:42:00,
2013-05-27 12:57:00,65.6,43.0,30.21,West,260,1.0,6.0,44,0.00,,,0.00,weatherlink.com 1.10,2013-05-27 16:57:00,
2013-05-27 13:12:00,66.5,43.0,30.20,SSE,165,2.0,4.0,43,0.00,,,0.00,weatherlink.com 1.10,2013-05-27 17:12:00,
2013-05-27 13:28:00,66.6,45.0,30.20,SE,140,0.0,3.0,46,0.00,,,0.00,weatherlink.com 1.10,2013-05-27 17:28:00,
2013-05-27 13:43:00,66.6,47.0,30.20,SE,137,0.0,5.0,49,0.00,,,0.00,weatherlink.com 1.10,2013-05-27 17:43:00,
2013-05-27 13:58:00,67.2,46.0,30.20,ESE,118,6.0,7.0,47,0.00,,,0.00,weatherlink.com 1.10,2013-05-27 17:58:00,
2013-05-27 14:13:00,66.8,48.0,30.20,West,262,0.0,4.0,51,0.00,,,0.00,weatherlink.com 1.10,2013-05-27 18:13:00,
2013-05-27 14:28:00,66.4,47.0,30.19,SW,231,2.0,5.0,50,0.00,,,0.00,weatherlink.com 1.10,2013-05-27 18:28:00,
2013-05-27 14:43:00,66.5,49.0,30.19,WSW,237,0.0,5.0,53,0.00,,,0.00,weatherlink.com 1.10,2013-05-27 18:43:00,
2013-05-27 14:58:00,66.6,48.0,30.19,SSW,200,0.0,4.0,51,0.00,,,0.00,weatherlink.com 1.10,2013-05-27 18:58:00,
2013-05-27 15:13:00,66.7,48.0,30.18,WSW,255,1.0,7.0,52,0.00,,,0.00,weatherlink.com 1.10,2013-05-27 19:13:00,
2013-05-27 15:28:00,66.9,49.0,30.18,NW,306,1.0,4.0,52,0.00,,,0.00,weatherlink.com 1.10,2013-05-27 19:28:00,
2013-05-27 15:43:00,66.3,46.0,30.18,WNW,290,4.0,11.0,49,0.00,,,0.00,weatherlink.com 1.10,2013-05-27 19:43:00,
2013-05-27 15:58:00,65.4,47.0,30.17,SSW,192,2.0,10.0,51,0.00,,,0.00,weatherlink.com 1.10,2013-05-27 19:58:00,
2013-05-27 16:13:00,64.9,46.0,30.17,NNW,333,2.0,9.0,51,0.00,,,0.00,weatherlink.com 1.10,2013-05-27 20:13:00,
2013-05-27 16:28:00,64.7,48.0,30.17,WNW,298,4.0,7.0,55,0.00,,,0.00,weatherlink.com 1.10,2013-05-27 20:28:00,
2013-05-27 16:43:00,64.3,48.0,30.16,WNW,296,2.0,5.0,56,0.00,,,0.00,weatherlink.com 1.10,2013-05-27 20:43:00,
2013-05-27 16:58:00,64.0,49.0,30.16,WNW,294,3.0,5.0,59,0.00,,,0.00,weatherlink.com 1.10,2013-05-27 20:58:00,
2013-05-27 17:13:00,64.0,50.0,30.15,WNW,289,3.0,3.0,61,0.00,,,0.00,weatherlink.com 1.10,2013-05-27 21:13:00,
2013-05-27 17:28:00,64.1,50.0,30.15,SW,231,3.0,6.0,61,0.00,,,0.00,weatherlink.com 1.10,2013-05-27 21:28:00,
2013-05-27 17:43:00,64.0,51.0,30.15,WSW,252,0.0,4.0,62,0.00,,,0.00,weatherlink.com 1.10,2013-05-27 21:43:00,
2013-05-27 17:58:00,63.7,51.0,30.14,WSW,247,1.0,3.0,63,0.00,,,0.00,weatherlink.com 1.10,2013-05-27 21:58:00,
2013-05-27 18:13:00,63.0,51.0,30.14,SSW,198,0.0,3.0,66,0.00,,,0.00,weatherlink.com 1.10,2013-05-27 22:13:00,
2013-05-27 18:28:00,62.8,51.0,30.13,SSE,155,2.0,2.0,66,0.00,,,0.00,weatherlink.com 1.10,2013-05-27 22:28:00,
2013-05-27 18:43:00,63.0,51.0,30.13,SE,126,0.0,2.0,65,0.00,,,0.00,weatherlink.com 1.10,2013-05-27 22:43:00,
2013-05-27 18:58:00,62.9,51.0,30.13,SE,126,0.0,0.0,66,0.00,,,0.00,weatherlink.com 1.10,2013-05-27 22:58:00,
2013-05-27 19:13:00,62.8,52.0,30.13,SE,126,0.0,0.0,68,0.00,,,0.00,weatherlink.com 1.10,2013-05-27 23:13:00,
2013-05-27 19:28:00,62.5,53.0,30.13,SE,126,0.0,0.0,70,0.00,,,0.00,weatherlink.com 1.10,2013-05-27 23:28:00,
2013-05-27 19:43:00,61.9,53.0,30.14,SE,126,0.0,0.0,73,0.00,,,0.00,weatherlink.com 1.10,2013-05-27 23:43:00,
2013-05-27 19:58:00,61.2,54.0,30.14,SE,126,0.0,0.0,76,0.00,,,0.00,weatherlink.com 1.10,2013-05-27 23:58:00,
2013-05-27 20:13:00,60.7,54.0,30.14,SE,126,0.0,0.0,78,0.00,,,0.00,weatherlink.com 1.10,2013-05-28 00:13:00,
2013-05-27 20:28:00,59.9,53.0,30.14,SE,126,0.0,0.0,78,0.00,,,0.00,weatherlink.com 1.10,2013-05-28 00:28:00,
2013-05-27 20:43:00,59.1,53.0,30.14,SE,126,0.0,0.0,81,0.00,,,0.00,weatherlink.com 1.10,2013-05-28 00:43:00,
2013-05-27 20:58:00,58.4,53.0,30.14,SE,126,0.0,0.0,83,0.00,,,0.00,weatherlink.com 1.10,2013-05-28 00:58:00,
2013-05-27 21:13:00,57.8,54.0,30.14,SE,126,0.0,0.0,86,0.00,,,0.00,weatherlink.com 1.10,2013-05-28 01:13:00,
2013-05-27 21:28:00,57.3,54.0,30.14,SE,126,0.0,0.0,87,0.00,,,0.00,weatherlink.com 1.10,2013-05-28 01:28:00,
2013-05-27 21:43:00,57.0,54.0,30.14,SE,126,0.0,0.0,88,0.00,,,0.00,weatherlink.com 1.10,2013-05-28 01:43:00,
2013-05-27 21:58:00,56.8,54.0,30.15,SE,126,0.0,0.0,89,0.00,,,0.00,weatherlink.com 1.10,2013-05-28 01:58:00,
2013-05-27 22:13:00,56.4,53.0,30.15,SE,126,0.0,0.0,89,0.00,,,0.00,weatherlink.com 1.10,2013-05-28 02:13:00,
2013-05-27 22:28:00,56.1,53.0,30.15,SE,126,0.0,0.0,90,0.00,,,0.00,weatherlink.com 1.10,2013-05-28 02:28:00,
2013-05-27 22:43:00,55.8,53.0,30.16,SE,126,0.0,0.0,91,0.00,,,0.00,weatherlink.com 1.10,2013-05-28 02:43:00,
2013-05-27 22:58:00,55.3,53.0,30.15,SE,126,0.0,0.0,91,0.00,,,0.00,weatherlink.com 1.10,2013-05-28 02:58:00,
2013-05-27 23:13:00,54.7,52.0,30.15,SE,126,0.0,0.0,91,0.00,,,0.00,weatherlink.com 1.10,2013-05-28 03:13:00,
2013-05-27 23:28:00,54.3,52.0,30.15,SE,126,0.0,0.0,93,0.00,,,0.00,weatherlink.com 1.10,2013-05-28 03:28:00,
2013-05-27 23:43:00,54.1,52.0,30.14,SE,126,0.0,0.0,93,0.00,,,0.00,weatherlink.com 1.10,2013-05-28 03:43:00,
2013-05-27 23:58:00,53.8,52.0,30.14,SE,126,0.0,0.0,93,0.00,,,0.00,weatherlink.com 1.10,2013-05-28 03:58:00,